Regional Weather Roundup
Issued by NWS

Home | Current Version | Previous Version | Graphics & Text | Print | Product List | Glossary On
Versions: 1 2 3 4 5 6 7 8 9 10 11 12 13 14 15 16 17 18 19 20 21 22 23 24 25 26 27 28 29 30 31 32 33 34 35 36 37 38 39 40 41 42 43 44 45 46 47 48 49 50
000
ASUS43 KDMX 230907
RWRIA

WEATHER ROUNDUP FOR IOWA
NATIONAL WEATHER SERVICE DES MOINES IA
400 AM CDT SAT MAY 23 2015

NOTE: "FAIR" INDICATES FEW OR NO CLOUDS BELOW 12,000 FEET WITH NO
SIGNIFICANT WEATHER AND/OR OBSTRUCTIONS TO VISIBILITY.

* - THESE STATIONS ARE NOT NWS STATIONS...THUS NOT UNDER NWS
QUALITY CONTROL.  THEY ALSO DO NOT REPORT WEATHER SUCH
AS PRECIPITATION OR FOG.

IAZ001>003-012>014-020>022-031>034-043>046-231000-
   NORTHWEST IOWA

CITY           SKY/WX    TMP DP  RH WIND       PRES   REMARKS
CARROLL *      CLOUDY    57  46  67 CALM      30.22S
CHEROKEE *     CLOUDY    55  50  82 CALM      30.22S
DENISON *      CLOUDY    54  52  94 SE5       30.20S
LE MARS *      LGT RAIN  57  50  77 SE5       30.21S
ORANGE CITY *  CLOUDY    55  46  71 SE5       30.20F
SHELDON *      CLOUDY    55  55 100 SE8       30.20S
SIOUX CITY     CLOUDY    56  50  80 SE7       30.19F
SPENCER        CLOUDY    56  51  84 E6        30.22S
STORM LAKE *   CLOUDY    57  46  67 S6        30.23S
$$

IAZ055>058-069>071-079>083-090>094-231000-
   SOUTHWEST IOWA

CITY           SKY/WX    TMP DP  RH WIND       PRES   REMARKS
ATLANTIC *     CLOUDY    54  50  87 CALM      30.22S
AUDUBON *      CLOUDY    54  48  82 CALM      30.23S
CLARINDA *     PTCLDY    55  50  82 CALM      30.23R
COUNCIL BLFS * CLOUDY    57  54  88 SE7       30.20S
CRESTON *      CLOUDY    57  54  88 SE6       30.23S
HARLAN  *      CLOUDY    55  55 100 CALM      30.24F
LAMONI         CLOUDY    57  52  83 E5        30.24R
RED OAK *      CLOUDY    57  50  77 MISG      30.22R
SHENANDOAH *   CLOUDY    55  52  88 SE5       30.21S
$$

IAZ047>049-059>061-072>074-084-231000-
   CENTRAL IOWA

CITY           SKY/WX    TMP DP  RH WIND       PRES   REMARKS
AMES           MOCLDY    54  50  86 CALM      30.24R
ANKENY *       CLEAR     52  50  93 CALM      30.24R
CHARITON *     MOCLDY    52  50  93 SE5       30.24S
DES MOINES     CLOUDY    58  49  72 SE7       30.24R
GRINNELL*      MOCLDY    54  46  76 CALM      30.26R
KNOXVILLE *    MOCLDY    54  48  82 SE5       30.23S
MARSHALLTOWN   CLOUDY    55  48  77 CALM      30.24R
PELLA *        PTCLDY    54  52  94 CALM      30.26R
PERRY *        CLOUDY    55  50  82 E5        30.23S
$$

IAZ004>006-015-016-023>025-035-036-231000-
   NORTH CENTRAL IOWA

CITY           SKY/WX    TMP DP  RH WIND       PRES   REMARKS
ALGONA *       CLOUDY    57  48  72 E5        30.23R
CLARION *      CLOUDY    57  48  72 E5        30.23S
ESTHERVILLE    LGT RAIN  55  46  71 VRB3      30.23R
FORT DODGE *   CLOUDY    55  48  76 E5        30.23S
MASON CITY     CLOUDY    56  45  66 N6        30.25S
FOREST CITY *  MOCLDY    54  45  71 CALM      30.24S
IOWA FALLS *   CLOUDY    57  46  67 CALM      30.25R
$$

IAZ007>011-017>019-026>030-037>042-050>054-066-231000-
   NORTHEAST IOWA

CITY           SKY/WX    TMP DP  RH WIND       PRES   REMARKS
CEDAR RAPIDS   MOCLDY    57  51  80 CALM      30.24R
CHARLES CITY * CLOUDY    57  45  62 W3        30.24R
CLINTON *      MOCLDY    55  37  50 E8        30.28R
DECORAH *      CLEAR     55  43  62 CALM      30.23R
DUBUQUE        CLOUDY    55  39  54 SE8       30.26R
MONTICELLO *   MOCLDY    55  45  67 E5        30.25R
OELWEIN *      MOCLDY    54  45  71 W5        30.24S
WATERLOO       MOCLDY    55  49  80 CALM      30.24R
$$

IAZ064-065-067-068-078-231000-
   EAST CENTRAL IOWA

CITY           SKY/WX    TMP DP  RH WIND       PRES   REMARKS
DAVENPORT      CLOUDY    57  43  59 SE7       30.25R
IOWA CITY      MOCLDY    60  50  69 CALM      30.26R
MT. PLEASANT * CLOUDY    55  54  94 CALM      30.26R
MUSCATINE *    MOCLDY    63  52  67 CALM      30.25R
QUAD CITIES    MOCLDY    54  45  71 CALM      30.25R
$$

IAZ062-063-075>077-085>089-095>099-231000-
   SOUTHEAST IOWA

CITY           SKY/WX    TMP DP  RH WIND       PRES   REMARKS
BURLINGTON     CLOUDY    57  55  93 NW3       30.25R
FAIRFIELD *    MOCLDY    52  50  93 CALM      30.26R
FORT MADISON * CLOUDY    55  54  94 SW3       30.27R
KEOKUK *       MOCLDY    54  52  94 CALM      30.25S
OSKALOOSA *      N/A     54  50  87 CALM      30.25S
CENTERVILLE *  CLEAR     48  48 100 E5        30.26S
OTTUMWA        PTCLDY    52  50  93 CALM      30.25R
WASHINGTON *   MOCLDY    54  52  94 SW3       30.27R
$$

ABBREVIATIONS USED IN REMARKS
   TC - TEMPERATURES IN CELSIUS
  WCI - WIND CHILL INDEX
   HX - HEAT INDEX
  VSB - VISIBILITY
$$



USA.gov is the U.S. government's official web portal to all federal, state and local government web resources and services.